Mountain View, CA

7:24 AM PST on December 10, 2016 (GMT -0800)
Moffett Federal Air Field

Weather History for KNUQ - October, 2010

Change the Weather History Date:

Thursday, October 28, 2010

  Actual Average Record
Temperature  
Mean Temperature 64 °F 61 °F  
Max Temperature 78 °F 71 °F 88 °F (2003)
Min Temperature 50 °F 52 °F 33 °F (1946)
Degree Days  
Heating Degree Days 1    
Month to date heating degree days 70  
Since 1 July heating degree days 149  
Cooling Degree Days 0    
Month to date cooling degree days 46  
Year to date cooling degree days 335  
Growing Degree Days 16 (Base 50)    
Moisture  
Dew Point 34 °F    
Average Humidity 37    
Maximum Humidity 59    
Minimum Humidity 14    
Precipitation  
Precipitation 0.00 in 0.04 in 0.75 in (1981)
Month to date precipitation 0.25 0.52  
Year to date precipitation 13.09 10.36  
Since 1 July precipitation 0.25  
Sea Level Pressure  
Sea Level Pressure 30.01 in    
Wind  
Wind Speed 6 mph (SSE)    
Max Wind Speed 17 mph    
Max Gust Speed 25 mph    
Visibility 10 miles    
Events      
T = Trace of Precipitation, MM = Missing Value Source: NWS Daily Summary

Daily Weather History Graph

Daily Weather History Graph

Search for Another Location

Airport or City:

Trip Planner

Search our weather history database for the weather conditions in past years. The results will help you decide how hot, cold, wet, or windy it might be!

Date:

Astronomy

Oct. 28, 2010 Rise Set
Actual Time 7:28 AM PDT 6:14 PM PDT
Civil Twilight 7:02 AM PDT 6:41 PM PDT
Nautical Twilight 6:31 AM PDT 7:11 PM PDT
Astronomical Twilight 6:01 AM PDT 7:42 PM PDT
Moon 10:54 PM PDT (10/28) 12:49 PM PDT (10/28)
Length of Visible Light 11h 39m
Length of Day
10h 45m
Waning Gibbous, 69% of the Moon is Illuminated
Oct 28
Waning Gibbous
Oct 30
Last Quarter
Nov 5
New
Nov 13
First Quarter
Nov 21
Full

Hourly Weather History & Observations

Time (PDT) Temp. Dew Point Humidity Pressure Visibility Wind Dir Wind Speed Gust Speed Precip Events Conditions
12:56 AM 57.0 °F 33.1 °F 40% 30.05 in 10.0 mi SSE 3.5 mph - N/A   Clear
1:56 AM 54.0 °F 34.0 °F 47% 30.04 in 10.0 mi Calm Calm - N/A   Clear
2:56 AM 55.9 °F 35.1 °F 45% 30.03 in 10.0 mi SE 4.6 mph - N/A   Clear
3:56 AM 59.0 °F 30.9 °F 35% 30.02 in 10.0 mi SE 4.6 mph - N/A   Clear
4:56 AM 57.0 °F 33.1 °F 40% 30.01 in 10.0 mi SE 4.6 mph - N/A   Clear
5:56 AM 54.0 °F 39.0 °F 57% 30.02 in 10.0 mi Calm Calm - N/A   Clear
6:56 AM 53.1 °F 39.0 °F 59% 30.03 in 10.0 mi Calm Calm - N/A   Clear
7:56 AM 53.1 °F 39.0 °F 59% 30.03 in 10.0 mi Calm Calm - N/A   Clear
8:56 AM 54.0 °F 39.9 °F 59% 30.04 in 10.0 mi Calm Calm - N/A   Clear
9:56 AM 62.1 °F 39.0 °F 43% 30.04 in 10.0 mi SE 3.5 mph - N/A   Clear
10:56 AM 70.0 °F 33.1 °F 26% 30.02 in 10.0 mi SE 5.8 mph - N/A   Clear
11:56 AM 75.0 °F 30.0 °F 19% 30.00 in 10.0 mi SE 12.7 mph 20.7 mph N/A   Clear
12:56 PM 77.0 °F 25.0 °F 15% 29.98 in 10.0 mi SSE 15.0 mph 23.0 mph N/A   Clear
1:56 PM 78.1 °F 26.1 °F 15% 29.96 in 10.0 mi SSE 13.8 mph 23.0 mph N/A   Clear
2:56 PM 75.0 °F 26.1 °F 16% 29.95 in 10.0 mi SSE 10.4 mph 18.4 mph N/A   Scattered Clouds
3:56 PM 73.9 °F 26.1 °F 17% 29.96 in 10.0 mi SSE 10.4 mph 20.7 mph N/A   Mostly Cloudy
4:56 PM 73.0 °F 28.9 °F 20% 29.96 in 10.0 mi South 11.5 mph 21.9 mph N/A   Overcast
5:56 PM 70.0 °F 32.0 °F 25% 29.96 in 10.0 mi SSW 10.4 mph 18.4 mph N/A   Overcast
6:56 PM 68.0 °F 35.1 °F 30% 29.98 in 10.0 mi Calm Calm - N/A   Overcast
7:56 PM 64.9 °F 43.0 °F 45% 29.99 in 10.0 mi SE 5.8 mph - N/A   Mostly Cloudy
8:56 PM 66.0 °F 42.1 °F 42% 30.01 in 10.0 mi Calm Calm - N/A   Partly Cloudy
9:56 PM 64.9 °F 39.9 °F 40% 30.01 in 10.0 mi Variable 3.5 mph - N/A   Mostly Cloudy
10:56 PM 64.9 °F 37.0 °F 36% 30.02 in 10.0 mi South 4.6 mph - N/A   Partly Cloudy
11:56 PM 64.9 °F 36.0 °F 34% 30.02 in 10.0 mi ESE 6.9 mph - N/A   Mostly Cloudy